User: anonymous   Login
Location: Quebec
(46.8000°N, 71.2500°W)
Time: 04:48:28
(UTC-05:00)
Language:

CZ-4B R/B - Orbit

View from above orbital plane
View from above orbital plane
View from above satellite
View from above satellite

Ground track
Ground track

The orbit data is extracted from the following two-line orbital elements,

1 29093U 06015B   16042.19854116  .00007266  00000-0  19877-3 0  9999
2 29093  97.4843 137.4404 0070586 281.9015  77.4319 15.35147383541927
Epoch (UTC): 11 February 2016 04:45:53
Eccentricity: 0.0070586
inclination: 97.4843°
perigee height: 412 km
apogee height: 509 km
right ascension of ascending node: 137.4404°
argument of perigee: 281.9015°
revolutions per day: 15.35147383
mean anomaly at epoch: 77.4319°
orbit number at epoch: 54192

The dashed part of the orbit path shows where the satellite is in the earth's shadow,  

DLR